Location: Moscow Pond
(43.6842°N, 73.2366°W)
Time: 05:59:26
(UTC+00:00)

Cosmos 1300 Rocket - Pass Details

Date: 08 November 2025
Orbit: 594 x 620 km, 82.5° (Epoch: 06 December)

Event Time Altitude Azimuth Distance (km) Brightness Sun altitude
Rises 10:44:01 0° 343° (NNW) 2,877 6.7 -10.2°
Reaches altitude 10° 10:46:23 10° 334° (NNW) 1,963 5.8 -9.8°
Maximum altitude 10:50:20 35° 269° (W) 976 4.1 -9.1°
Drops below altitude 10° 10:54:13 10° 203° (SSW) 1,935 6.0 -8.4°
Sets 10:56:32 0° 195° (SSW) 2,828 7.0 -8.0°
